Location: Unspecified
(48.7971°N, 123.6320°W)
Time: 18:03:48
(UTC-07:00)

Okean 3 - Pass Details

Date: 03 July 2019
Orbit: 578 x 600 km, 82.5° (Epoch: 14 October)

Event Time Altitude Azimuth Distance (km) Brightness Sun altitude
Rises 03:52:50 0° 349° (NNW) 2,860 7.7 -10.4°
Reaches altitude 10° 03:55:03 10° 348° (NNW) 1,951 6.7 -10.2°
Maximum altitude 03:59:22 78° 262° (W) 617 3.5 -9.8°
Drops below altitude 10° 04:03:37 10° 177° (S) 1,923 5.6 -9.4°
Enters shadow 04:04:44 - 176° (S) 2,377 6.1 -9.3°
